GW5124 Weather Reports


time (UTC)temp
F
wind
direction
speed
knots
gust
knots
rain 1hr
in
rain 24hr
in
rain mn
in
humidity
%
barometer
mb
20260502152206 43 242 0.0 0.9 0.00 0.00 0.00 57 1015.1
20260502151703 44 257 2.6 7.0 0.00 0.00 0.00 55 1015.2
20260502151200 44 242 1.7 6.1 0.00 0.00 0.00 56 1015.1
20260502150657 43 95 0.9 1.7 0.00 0.00 0.00 56 1014.9
20260502150153 43 125 2.6 6.1 0.00 0.00 0.00 55 1015.2
20260502140117 41 150 0.9 2.6 0.00 0.00 0.00 66 1014.9
20260502130542 38 320 0.9 1.7 0.00 0.00 0.00 79 1014.8
20260502123525 38 84 0.9 0.9 0.00 0.00 0.00 85 1014.7
20260502123022 37 164 0.9 1.7 0.00 0.00 0.00 86 1014.5
20260502122519 37 107 0.0 0.0 0.00 0.00 0.00 88 1014.7
20260502122016 36 244 2.6 2.6 0.00 0.00 0.00 88 1014.6
20260502121513 36 261 0.0 3.5 0.00 0.00 0.00 88 1014.8
20260502121011 36 204 0.0 1.7 0.00 0.00 0.00 89 1014.6
20260502120507 36 241 1.7 2.6 0.00 0.00 0.00 89 1014.6
20260502115501 35 155 0.0 0.0 0.00 0.00 0.00 95 1014.6
20260502114957 35 155 0.0 0.0 0.00 0.00 0.00 96 1014.6
20260502114454 35 155 0.0 0.0 0.00 0.00 0.00 96 1014.6
20260502113951 35 155 0.0 0.0 0.00 0.00 0.00 96 1014.3
20260502113449 34 155 0.0 0.0 0.00 0.00 0.00 96 1014.3
20260502112947 34 155 0.0 0.0 0.00 0.00 0.00 96 1014.5
20260502112444 34 155 0.0 0.0 0.00 0.00 0.00 97 1014.1
20260502111942 34 155 0.0 0.0 0.00 0.00 0.00 97 1014.1
20260502111439 34 155 0.0 0.0 0.00 0.00 0.00 97 1014.3
20260502110936 33 155 0.0 0.0 0.00 0.00 0.00 97 1014.5
20260502110434 33 155 0.0 0.0 0.00 0.00 0.00 97 1014.3
20260502105931 33 155 0.0 0.0 0.00 0.00 0.00 96 1014.2
20260502105428 33 155 0.0 0.0 0.00 0.00 0.00 96 1014.3
20260502104926 33 155 0.0 0.0 0.00 0.00 0.00 96 1014.3
20260502104423 33 155 0.0 0.0 0.00 0.00 0.00 96 1014.3
20260502103920 33 155 0.0 0.0 0.00 0.00 0.00 96 1014.8
20260502103418 33 155 0.0 0.0 0.00 0.00 0.00 96 1014.5
20260502102915 33 155 0.0 0.0 0.00 0.00 0.00 96 1014.5
20260502102411 33 155 0.0 0.0 0.00 0.00 0.00 96 1014.5
20260502101909 33 155 0.0 0.0 0.00 0.00 0.00 96 1014.2
20260502101407 33 155 0.0 0.0 0.00 0.00 0.00 96 1014.5
20260502100905 33 155 0.0 0.0 0.00 0.00 0.00 96 1014.7
20260502100404 33 155 0.0 0.0 0.00 0.00 0.00 96 1014.5
20260502091337 35 155 0.0 0.0 0.00 0.00 0.00 95 1014.8
20260502090835 35 155 0.0 0.9 0.00 0.00 0.00 94 1014.7
20260502090332 35 155 0.0 0.9 0.00 0.00 0.00 94 1014.9
20260502071227 36 140 0.0 0.0 0.00 0.00 0.00 89 1014.9
20260502070725 37 140 0.0 0.0 0.00 0.00 0.00 89 1014.6
20260502070222 37 142 1.7 1.7 0.00 0.00 0.00 88 1014.7
20260502065721 37 130 0.0 0.0 0.00 0.00 0.00 88 1014.5
20260502065218 37 135 0.0 0.0 0.00 0.00 0.00 88 1014.5
20260502064717 37 152 0.0 0.0 0.00 0.00 0.00 87 1014.5
20260502064214 37 125 0.0 0.9 0.00 0.00 0.00 86 1014.5
20260502063711 38 169 1.7 1.7 0.00 0.00 0.00 85 1014.7
20260502063209 38 159 0.9 1.7 0.00 0.00 0.00 85 1014.8
20260502062706 38 149 0.9 0.9 0.00 0.00 0.00 85 1014.8
20260502062203 38 141 0.0 1.7 0.00 0.00 0.00 83 1015.0
20260502061702 38 142 0.0 1.7 0.00 0.00 0.00 83 1015.0
20260502061159 38 148 0.0 0.0 0.00 0.00 0.00 83 1015.1
20260502060654 38 146 0.9 0.9 0.00 0.00 0.00 83 1015.1
20260502060151 38 169 0.0 0.0 0.00 0.00 0.00 83 1015.0
20260502055648 38 169 0.0 0.9 0.00 0.00 0.00 82 1015.0
20260502055146 38 152 0.9 0.9 0.00 0.00 0.00 81 1015.1
20260502054645 39 153 0.0 0.0 0.00 0.00 0.00 83 1015.1
20260502054142 39 138 0.0 0.0 0.00 0.00 0.00 81 1015.0
20260502053639 39 162 0.0 0.9 0.00 0.00 0.00 80 1015.0
20260502053136 40 143 0.0 1.7 0.00 0.00 0.00 80 1015.2
20260502052635 40 159 0.0 0.9 0.00 0.00 0.00 80 1015.4
20260502052132 40 162 0.0 0.9 0.00 0.00 0.00 80 1015.3
20260502051630 40 269 0.0 0.0 0.00 0.00 0.00 79 1015.1
20260502051128 40 164 0.0 0.0 0.00 0.00 0.00 81 1015.2
20260502050624 40 148 0.0 0.9 0.00 0.00 0.00 81 1015.5
20260502050121 41 217 0.0 0.9 0.00 0.00 0.00 82 1015.2
20260502045617 41 83 0.0 0.9 0.00 0.00 0.00 83 1015.5
20260502045115 41 82 0.9 1.7 0.00 0.00 0.00 83 1015.4
20260502044611 41 139 1.7 2.6 0.00 0.00 0.00 84 1015.4
20260502044108 41 155 0.9 1.7 0.00 0.00 0.00 84 1015.5
20260502043606 42 119 0.9 1.7 0.00 0.00 0.00 84 1015.4
20260502043057 42 151 0.0 1.7 0.00 0.00 0.00 83 1015.1
20260502042556 42 96 0.0 0.9 0.00 0.00 0.00 81 1015.4
20260502042054 42 181 0.0 0.0 0.00 0.00 0.00 80 1015.3
20260502041552 42 192 0.0 0.0 0.00 0.00 0.00 80 1015.4
20260502041049 42 165 0.9 0.9 0.00 0.00 0.00 79 1015.4
20260502040545 42 178 0.9 0.9 0.00 0.00 0.00 79 1015.4
20260502040043 42 179 0.0 0.0 0.00 0.00 0.00 79 1015.5
20260502035538 42 174 0.9 5.2 0.00 0.00 0.00 79 1015.3
20260502035036 43 139 1.7 2.6 0.00 0.00 0.00 80 1015.4
20260502034534 43 154 0.9 1.7 0.00 0.00 0.00 79 1015.5
20260502034032 43 189 1.7 3.5 0.00 0.00 0.00 79 1015.3
20260502033530 43 98 0.0 2.6 0.00 0.00 0.00 80 1015.3
20260502033027 43 205 0.0 0.9 0.00 0.00 0.00 82 1015.5
20260502032522 43 143 1.7 3.5 0.00 0.00 0.00 82 1015.6
20260502032020 43 134 1.7 5.2 0.00 0.00 0.00 82 1015.2
20260502031518 43 335 0.0 0.9 0.00 0.00 0.00 83 1015.5
20260502031015 43 191 0.9 2.6 0.00 0.00 0.00 82 1015.3
20260502030514 43 34 0.0 0.9 0.00 0.00 0.00 82 1015.1
20260502030012 43 139 0.0 0.9 0.00 0.00 0.00 82 1015.1
20260502025509 44 135 0.0 0.9 0.00 0.00 0.00 81 1015.3
20260502025007 44 176 0.0 1.7 0.00 0.00 0.00 81 1015.0
20260502024504 44 219 0.0 0.0 0.00 0.00 0.00 80 1015.1
20260502024003 44 158 0.9 0.9 0.00 0.00 0.00 79 1015.2
20260502023459 44 166 0.0 0.9 0.00 0.00 0.00 79 1015.4
20260502022957 44 188 0.0 0.0 0.00 0.00 0.00 79 1015.3
20260502022453 44 131 0.9 0.9 0.00 0.00 0.00 78 1015.2
20260502021950 44 152 0.9 0.9 0.00 0.00 0.00 78 1015.0
20260502021448 44 90 0.0 1.7 0.00 0.00 0.00 78 1015.0
20260502020944 44 72 0.9 1.7 0.00 0.00 0.00 78 1014.8
20260502020442 44 231 0.9 2.6 0.00 0.00 0.00 77 1014.9
20260502015938 44 132 1.7 1.7 0.00 0.00 0.00 76 1014.6
20260502015436 44 187 0.0 1.7 0.00 0.00 0.00 76 1014.9
20260502014933 44 159 1.7 2.6 0.00 0.00 0.00 75 1014.6
20260502014430 45 47 0.9 0.9 0.00 0.00 0.00 76 1014.6
20260502013926 45 143 0.0 1.7 0.00 0.00 0.00 75 1014.6
20260502013422 45 95 0.9 1.7 0.00 0.00 0.00 75 1014.7
20260502012918 45 178 0.0 1.7 0.00 0.00 0.00 75 1014.6
20260502012416 45 111 0.0 0.0 0.00 0.00 0.00 75 1014.6
20260502011908 45 207 0.9 1.7 0.00 0.00 0.00 75 1014.7
20260502011404 45 219 0.9 1.7 0.00 0.00 0.00 75 1014.8
20260502010902 45 190 1.7 3.5 0.00 0.00 0.00 74 1014.6
20260502010358 45 121 0.9 5.2 0.00 0.00 0.00 75 1014.6
20260502005855 46 121 2.6 5.2 0.00 0.00 0.00 76 1014.3
20260502005353 46 201 0.0 6.1 0.00 0.00 0.00 77 1014.2
20260502004850 46 31 0.0 2.6 0.00 0.00 0.00 78 1014.2
20260502004346 46 217 1.7 6.1 0.00 0.00 0.00 78 1014.1
20260502003844 46 259 0.0 3.5 0.00 0.00 0.00 79 1013.8
20260502003340 47 205 0.9 1.7 0.00 0.00 0.00 79 1013.8
20260502002837 47 211 0.0 1.7 0.00 0.00 0.00 79 1013.7
20260502002334 47 177 1.7 3.5 0.00 0.00 0.00 79 1013.6
20260502001831 47 186 0.0 0.9 0.00 0.00 0.00 79 1013.6
20260502001329 47 231 3.5 6.1 0.00 0.00 0.00 79 1013.4
20260502000826 47 164 1.7 2.6 0.00 0.00 0.00 79 1012.9
20260502000325 47 134 0.0 1.7 0.00 0.00 0.00 79 1013.0
20260501235820 48 162 0.0 0.9 0.00 0.00 0.00 79 1013.2
20260501235316 48 284 3.5 5.2 0.00 0.00 0.00 78 1013.0
20260501234811 48 206 0.9 3.5 0.00 0.00 0.00 77 1012.7
20260501234309 48 153 0.9 2.6 0.00 0.00 0.00 76 1012.8
20260501233807 48 87 0.0 2.6 0.00 0.00 0.00 76 1012.4
20260501233304 49 118 1.7 6.1 0.00 0.00 0.00 74 1012.6
20260501232759 49 190 0.9 2.6 0.00 0.00 0.00 74 1012.3
20260501232257 49 216 0.9 3.5 0.00 0.00 0.00 72 1012.6
20260501231755 50 182 0.0 2.6 0.00 0.00 0.00 71 1012.5
20260501231253 50 174 3.5 7.8 0.00 0.00 0.00 71 1012.5
20260501230751 50 149 1.7 6.1 0.00 0.00 0.00 70 1012.5
20260501230249 51 131 1.7 3.5 0.00 0.00 0.00 69 1012.4
20260501225746 51 199 0.9 1.7 0.00 0.00 0.00 67 1012.1
20260501225243 52 202 3.5 6.1 0.00 0.00 0.00 66 1012.3
20260501224739 53 165 0.9 3.5 0.00 0.00 0.00 63 1012.2
20260501224237 53 134 1.7 5.2 0.00 0.00 0.00 61 1012.3
20260501223733 53 267 4.3 9.6 0.00 0.00 0.00 59 1012.1
20260501223230 53 267 0.9 2.6 0.00 0.00 0.00 58 1012.0
20260501222726 53 195 2.6 7.0 0.00 0.00 0.00 57 1011.9
20260501222223 54 145 5.2 7.0 0.00 0.00 0.00 54 1011.7
20260501221720 54 166 3.5 5.2 0.00 0.00 0.00 53 1011.7
20260501221217 54 200 2.6 5.2 0.00 0.00 0.00 52 1012.0
20260501220715 54 127 3.5 5.2 0.00 0.00 0.00 51 1011.6
20260501220212 54 186 0.9 7.0 0.00 0.00 0.00 50 1011.5
20260501215709 55 205 2.6 6.1 0.00 0.00 0.00 49 1011.6
20260501215204 55 174 2.6 2.6 0.00 0.00 0.00 48 1011.4
20260501214659 56 279 1.7 3.5 0.00 0.00 0.00 48 1011.2
20260501214155 56 176 1.7 3.5 0.00 0.00 0.00 46 1011.5
20260501213652 56 228 2.6 7.8 0.00 0.00 0.00 44 1011.4
20260501213148 56 221 3.5 7.8 0.00 0.00 0.00 43 1011.3
20260501212645 57 225 2.6 3.5 0.00 0.00 0.00 39 1011.4
20260501212141 58 173 7.0 9.6 0.00 0.00 0.00 39 1011.2
20260501211638 58 185 5.2 11.3 0.00 0.00 0.00 37 1011.2
20260501211136 59 195 4.3 13.0 0.00 0.00 0.00 37 1011.2
20260501210632 60 144 3.5 6.1 0.00 0.00 0.00 35 1011.1
20260501210129 60 220 4.3 6.1 0.00 0.00 0.00 34 1011.1
20260501205625 59 183 2.6 8.7 0.00 0.00 0.00 33 1010.9
20260501205123 59 157 5.2 6.1 0.00 0.00 0.00 33 1010.9
20260501204619 59 155 1.7 7.0 0.00 0.00 0.00 32 1010.9
20260501204115 60 213 2.6 9.6 0.00 0.00 0.00 31 1010.9
20260501203612 62 205 4.3 6.1 0.00 0.00 0.00 31 1010.6
20260501203109 62 174 4.3 8.7 0.00 0.00 0.00 29 1010.8
20260501202607 63 228 3.5 9.6 0.00 0.00 0.00 31 1010.6
20260501202103 62 158 4.3 12.2 0.00 0.00 0.00 29 1010.4
20260501201600 62 182 1.7 8.7 0.00 0.00 0.00 29 1010.8
20260501201056 61 193 6.1 13.0 0.00 0.00 0.00 28 1010.8
20260501200554 61 255 2.6 7.8 0.00 0.00 0.00 30 1011.0
20260501200051 61 166 3.5 7.8 0.00 0.00 0.00 29 1010.8
20260501195548 60 180 3.5 11.3 0.00 0.00 0.00 29 1011.0
20260501195044 62 199 6.1 14.8 0.00 0.00 0.00 29 1011.0
20260501194539 64 193 3.5 7.0 0.00 0.00 0.00 27 1011.0
20260501194035 63 168 1.7 5.2 0.00 0.00 0.00 28 1010.9
20260501193533 61 151 3.5 5.2 0.00 0.00 0.00 27 1011.2
20260501193032 61 192 6.1 12.2 0.00 0.00 0.00 27 1011.0
20260501192528 61 206 2.6 7.8 0.00 0.00 0.00 30 1011.1
20260501192026 62 188 7.0 9.6 0.00 0.00 0.00 27 1011.0
20260501191522 63 254 4.3 6.1 0.00 0.00 0.00 28 1010.9
20260501191020 61 126 1.7 3.5 0.00 0.00 0.00 27 1011.1
20260501190515 60 150 6.1 13.0 0.00 0.00 0.00 28 1011.2
20260501190012 63 211 4.3 7.8 0.00 0.00 0.00 28 1011.2
20260501185507 63 102 3.5 7.0 0.00 0.00 0.00 25 1010.9
20260501185003 63 125 6.1 9.6 0.00 0.00 0.00 25 1011.3
20260501184500 63 184 3.5 13.0 0.00 0.00 0.00 24 1011.2
20260501183954 61 175 2.6 7.8 0.00 0.00 0.00 26 1011.2
20260501183452 61 282 4.3 6.1 0.00 0.00 0.00 26 1011.3
20260501182948 61 218 3.5 5.2 0.00 0.00 0.00 28 1011.3
20260501182445 62 267 3.5 6.1 0.00 0.00 0.00 27 1011.3
20260501181941 60 184 5.2 7.8 0.00 0.00 0.00 29 1011.3
20260501181439 60 291 2.6 7.8 0.00 0.00 0.00 30 1011.2
20260501180936 61 198 1.7 5.2 0.00 0.00 0.00 30 1011.4
20260501180433 61 292 4.3 7.0 0.00 0.00 0.00 31 1011.4
20260501175929 62 226 3.5 7.8 0.00 0.00 0.00 29 1011.7
20260501175426 61 175 2.6 7.0 0.00 0.00 0.00 28 1011.7
20260501174923 61 250 2.6 5.2 0.00 0.00 0.00 27 1011.7
20260501174421 59 346 1.7 8.7 0.00 0.00 0.00 29 1011.7
20260501173918 60 233 1.7 3.5 0.00 0.00 0.00 26 1012.0
20260501173416 60 182 2.6 7.0 0.00 0.00 0.00 26 1011.7
20260501172911 60 174 7.0 11.3 0.00 0.00 0.00 26 1011.6
20260501172407 59 201 3.5 6.1 0.00 0.00 0.00 30 1012.0
20260501171902 59 215 1.7 5.2 0.00 0.00 0.00 33 1011.9
20260501171359 59 261 0.9 7.8 0.00 0.00 0.00 31 1012.3
20260501170855 58 235 0.9 6.1 0.00 0.00 0.00 33 1012.2
20260501170352 58 165 2.6 7.0 0.00 0.00 0.00 33 1012.4
20260501165850 59 225 4.3 7.0 0.00 0.00 0.00 33 1012.3
20260501165348 58 184 2.6 6.1 0.00 0.00 0.00 31 1012.2
20260501164845 56 293 5.2 8.7 0.00 0.00 0.00 32 1012.5
20260501164343 56 101 4.3 7.0 0.00 0.00 0.00 31 1012.5
20260501163838 56 185 1.7 2.6 0.00 0.00 0.00 33 1012.5
20260501163335 57 186 1.7 5.2 0.00 0.00 0.00 30 1012.3
20260501162832 58 169 0.9 3.5 0.00 0.00 0.00 31 1012.5
20260501162329 58 253 0.9 3.5 0.00 0.00 0.00 29 1012.6
20260501161826 59 43 3.5 5.2 0.00 0.00 0.00 29 1012.4
20260501161323 58 207 0.9 1.7 0.00 0.00 0.00 30 1012.7
20260501160819 57 178 3.5 3.5 0.00 0.00 0.00 32 1012.5
20260501160316 56 214 5.2 8.7 0.00 0.00 0.00 32 1012.7
20260501155814 57 91 2.6 3.5 0.00 0.00 0.00 32 1012.8
20260501155310 57 198 2.6 3.5 0.00 0.00 0.00 32 1012.6